Date String (YYYY-MM-DD hh:mm:ss) UTC,Instrument flags,absolute air pressure of the measurement (hPa),sample flow rate (lpm),inlet stack bypass flow (lpm),air temperature of the measurement (°C),ambient temperature measured by the external sensor (°C),aerosol sample conditioner tube jacket temperature (°C),OPC LED temperature (°C),internal box temperature (°C),relative humidity of the measurement (%),span deviation,mass concentration of particles derived from Lorenz-Mie calculation of OPC scattering (μg/m³),mass concentration of particles derived from Lorenz-Mie calculation of OPC scattering (μg/m³),mass concentration of particles derived from Lorenz-Mie calculation of OPC scattering (μg/m³)
DateTimeUTC,F1_M11,P_M11,Q1_M11,Q2_M11,T1_M11,T2_M11,T3_M11,T4_M11,T5_M11,U1_M11,ZSPAN_M11,X2_M11,X0_M11,X1_M11
2024-06-06 20:00:00,SystemResetWarning,0832.0,5.00,000.00,028.8,026.9,000.0,037.4,030.2,023.2,0000.0,0004.09,0016.10,0002.13
2024-06-06 20:01:00,SystemResetWarning,0831.9,5.01,000.00,028.9,027.3,000.0,037.3,030.4,023.4,0000.0,0004.06,0016.63,0002.12
2024-06-06 20:02:00,SystemResetWarning,0831.9,5.00,000.00,028.9,027.7,000.0,037.3,030.6,023.5,0000.0,0003.99,0016.16,0002.07
2024-06-06 20:03:00,SystemResetWarning,0831.9,5.00,000.00,029.0,028.0,000.0,037.3,030.8,023.2,0000.0,0004.02,0016.57,0002.05
2024-06-06 20:04:00,SystemResetWarning,0831.9,4.99,000.00,029.1,028.3,000.0,037.3,030.9,023.0,0000.0,0003.97,0017.28,0002.02
2024-06-06 20:05:00,SystemResetWarning,0831.9,4.99,000.00,029.2,028.5,000.0,037.3,031.0,022.4,0000.0,0003.92,0016.93,0002.00
2024-06-06 20:06:00,SystemResetWarning,0831.9,5.00,000.00,029.2,028.7,000.0,037.4,031.1,022.9,0000.0,0003.84,0016.73,0002.02
2024-06-06 20:07:00,SystemResetWarning,0831.9,4.99,000.00,029.3,028.8,000.0,037.4,031.2,023.1,0000.0,0003.78,0017.24,0002.04
2024-06-06 20:08:00,SystemResetWarning,0831.9,5.00,000.00,029.4,029.0,000.0,037.4,031.3,023.1,0000.0,0003.79,0017.89,0002.04
2024-06-06 20:09:00,SystemResetWarning,0831.9,5.00,000.00,029.5,029.1,000.0,037.5,031.4,022.7,0000.0,0003.80,0018.95,0002.06
2024-06-06 20:10:00,SystemResetWarning,0831.9,5.01,000.00,029.6,029.2,000.0,037.5,031.4,022.5,0000.0,0003.78,0018.68,0002.09
2024-06-06 20:11:00,SystemResetWarning,0831.9,4.98,000.00,029.5,027.9,000.0,037.6,030.7,022.4,0000.0,0003.85,0018.86,0002.13
2024-06-06 20:12:00,SystemResetWarning,0831.7,5.00,000.00,029.2,026.7,000.0,037.7,030.1,023.2,0000.0,0003.89,0017.85,0002.16
2024-06-06 20:13:00,SystemResetWarning,0831.7,5.01,000.00,029.1,027.0,000.0,037.6,030.2,023.2,0000.0,0003.93,0017.88,0002.20
2024-06-06 20:14:00,SystemResetWarning,0831.7,5.01,000.00,029.1,027.3,000.0,037.5,030.4,023.4,0000.0,0003.90,0017.63,0002.21
2024-06-06 20:15:00,SystemResetWarning,0831.7,4.99,000.00,029.1,027.7,000.0,037.5,030.7,024.3,0000.0,0003.89,0016.53,0002.21
2024-06-06 20:16:00,SystemResetWarning,0831.7,5.00,000.00,029.2,028.0,000.0,037.5,030.8,024.0,0000.0,0003.92,0016.96,0002.22
2024-06-06 20:17:00,SystemResetWarning,0831.7,5.00,000.00,029.3,028.3,000.0,037.5,031.0,024.8,0000.0,0003.98,0017.84,0002.23
2024-06-06 20:18:00,SystemResetWarning,0831.7,5.01,000.00,029.3,028.5,000.0,037.5,031.1,023.7,0000.0,0004.05,0017.09,0002.24
2024-06-06 20:19:00,SystemResetWarning,0831.7,5.00,000.00,029.4,028.7,000.0,037.5,031.2,025.0,0000.0,0004.08,0016.80,0002.26
2024-06-06 20:20:00,SystemResetWarning,0831.7,5.00,000.00,029.5,028.9,000.0,037.6,031.3,023.8,0000.0,0004.10,0017.81,0002.32
2024-06-06 20:21:00,SystemResetWarning,0831.7,4.99,000.00,029.5,028.9,000.0,037.6,031.3,024.1,0000.0,0004.22,0017.92,0002.39
2024-06-06 20:22:00,SystemResetWarning,0831.6,5.00,000.00,029.3,026.9,000.0,037.7,030.3,024.4,0000.0,0004.27,0018.47,0002.43
2024-06-06 20:23:00,SystemResetWarning,0831.6,5.00,000.00,028.9,025.5,000.0,037.7,029.6,024.6,0000.0,0004.27,0018.97,0002.48
2024-06-06 20:24:00,SystemResetWarning,0831.6,5.01,000.00,028.8,025.9,000.0,037.6,029.7,024.8,0000.0,0004.28,0018.91,0002.54
2024-06-06 20:25:00,SystemResetWarning,0831.6,5.00,000.00,028.7,026.4,000.0,037.5,029.9,024.6,0000.0,0004.23,0017.63,0002.58
2024-06-06 20:26:00,SystemResetWarning,0831.6,4.99,000.00,028.8,026.9,000.0,037.4,030.2,025.1,0000.0,0004.28,0017.90,0002.65
2024-06-06 20:27:00,SystemResetWarning,0831.6,5.00,000.00,028.8,027.3,000.0,037.3,030.4,025.0,0000.0,0004.32,0018.79,0002.71
2024-06-06 20:28:00,SystemResetWarning,0831.6,5.01,000.00,028.9,027.7,000.0,037.3,030.6,025.0,0000.0,0004.36,0018.19,0002.77
2024-06-06 20:29:00,SystemResetWarning,0831.6,5.01,000.00,029.0,028.0,000.0,037.3,030.7,024.9,0000.0,0004.34,0018.48,0002.80
2024-06-06 20:30:00,SystemResetWarning,0831.6,4.99,000.00,029.1,028.3,000.0,037.3,030.8,025.2,0000.0,0004.41,0020.42,0002.85
2024-06-06 20:31:00,SystemResetWarning,0831.6,5.00,000.00,029.1,028.5,000.0,037.3,031.0,025.5,0000.0,0004.43,0022.21,0002.88
2024-06-06 20:32:00,SystemResetWarning,0831.6,5.00,000.00,029.2,028.7,000.0,037.4,031.1,024.8,0000.0,0004.45,0022.49,0002.87
2024-06-06 20:33:00,SystemResetWarning,0831.5,5.00,000.00,029.3,028.9,000.0,037.4,031.2,024.5,0000.0,0004.46,0024.39,0002.88
2024-06-06 20:34:00,SystemResetWarning,0831.5,5.01,000.00,029.4,029.0,000.0,037.4,031.3,024.3,0000.0,0004.55,0025.69,0002.90
2024-06-06 20:35:00,SystemResetWarning,0831.5,5.00,000.00,029.5,029.1,000.0,037.5,031.4,024.7,0000.0,0004.66,0027.67,0002.93
2024-06-06 20:36:00,SystemResetWarning,0831.5,4.98,000.00,029.5,028.0,000.0,037.5,030.8,024.3,0000.0,0004.74,0030.28,0002.96
2024-06-06 20:37:00,SystemResetWarning,0831.4,5.00,000.00,029.1,026.0,000.0,037.6,029.8,025.5,0000.0,0004.82,0032.17,0002.99
2024-06-06 20:38:00,SystemResetWarning,0831.4,5.02,000.00,028.8,025.8,000.0,037.6,029.6,026.6,0000.0,0004.85,0032.42,0003.00
2024-06-06 20:39:00,SystemResetWarning,0831.4,5.00,000.00,028.7,026.3,000.0,037.5,029.8,027.0,0000.0,0004.83,0032.45,0003.02
2024-06-06 20:40:00,SystemResetWarning,0831.4,4.99,000.00,028.8,026.8,000.0,037.4,030.1,026.6,0000.0,0004.89,0032.50,0003.07
2024-06-06 20:41:00,SystemResetWarning,0831.4,4.99,000.00,028.8,027.2,000.0,037.3,030.4,026.8,0000.0,0004.97,0033.17,0003.10
2024-06-06 20:42:00,SystemResetWarning,0831.4,5.01,000.00,028.9,027.6,000.0,037.3,030.5,025.6,0000.0,0004.97,0032.41,0003.11
2024-06-06 20:43:00,SystemResetWarning,0831.4,5.01,000.00,029.0,027.9,000.0,037.3,030.7,025.4,0000.0,0004.99,0031.50,0003.13
2024-06-06 20:44:00,SystemResetWarning,0831.3,4.99,000.00,029.0,028.2,000.0,037.3,030.8,025.5,0000.0,0004.96,0029.88,0003.13
2024-06-06 20:45:00,SystemResetWarning,0831.4,4.99,000.00,029.1,028.5,000.0,037.3,031.0,024.3,0000.0,0005.00,0029.94,0003.12
2024-06-06 20:46:00,SystemResetWarning,0831.4,5.01,000.00,029.2,028.7,000.0,037.3,031.1,024.4,0000.0,0004.96,0029.72,0003.10
2024-06-06 20:47:00,SystemResetWarning,0831.5,5.02,000.00,029.3,028.9,000.0,037.4,031.2,023.7,0000.0,0004.96,0027.65,0003.08
2024-06-06 20:48:00,SystemResetWarning,0831.5,5.00,000.00,029.4,029.0,000.0,037.4,031.3,022.5,0000.0,0004.87,0025.05,0003.02
2024-06-06 20:49:00,SystemResetWarning,0831.5,4.98,000.00,029.4,028.6,000.0,037.5,031.0,022.3,0000.0,0004.83,0023.70,0002.97
2024-06-06 20:50:00,SystemResetWarning,0831.3,5.01,000.00,029.1,026.5,000.0,037.6,030.0,022.5,0000.0,0004.80,0024.30,0002.92
2024-06-06 20:51:00,SystemResetWarning,0831.3,5.01,000.00,028.8,025.7,000.0,037.5,029.5,023.0,0000.0,0004.73,0024.53,0002.84
2024-06-06 20:52:00,SystemResetWarning,0831.4,5.00,000.00,028.7,026.1,000.0,037.5,029.7,024.1,0000.0,0004.68,0022.53,0002.75
2024-06-06 20:53:00,SystemResetWarning,0831.4,4.99,000.00,028.7,026.6,000.0,037.3,030.0,024.3,0000.0,0004.65,0021.00,0002.67
2024-06-06 20:54:00,SystemResetWarning,0831.4,5.00,000.00,028.7,027.0,000.0,037.3,030.2,023.4,0000.0,0004.60,0021.34,0002.59
2024-06-06 20:55:00,SystemResetWarning,0831.4,5.01,000.00,028.8,027.4,000.0,037.3,030.5,022.4,0000.0,0004.60,0021.78,0002.51
2024-06-06 20:56:00,SystemResetWarning,0831.4,5.00,000.00,028.9,027.8,000.0,037.2,030.6,023.0,0000.0,0004.49,0020.28,0002.44
2024-06-06 20:57:00,SystemResetWarning,0831.4,5.00,000.00,029.0,028.1,000.0,037.3,030.8,021.9,0000.0,0004.41,0019.31,0002.38
2024-06-06 20:58:00,SystemResetWarning,0831.4,5.00,000.00,029.1,028.3,000.0,037.3,030.9,021.8,0000.0,0004.32,0018.64,0002.30
2024-06-06 20:59:00,SystemResetWarning,0831.4,5.01,000.00,029.1,028.6,000.0,037.3,031.0,022.1,0000.0,0004.30,0018.99,0002.26
